Home   Weather   Chengdu   Past weeks
Flag for China

Past Weather in Chengdu, Sichuan, China — Yesterday and Last 2 Weeks

Now
55 °F

Sprinkles. Passing clouds.


Feels Like: 55 °F
Forecast: 64 / 48 °F
Wind: No wind

Location: Chengdu Airport

Current Time: Mar 23, 2019 at 12:33:32 am

Latest Report: Mar 23, 2019 at 12:00 am


Visibility: N/A

Pressure: 30.30 "Hg

Humidity: 72%

Dew Point: 46 °F

Location of ChengduLocation

Past Weather in Chengdu — Graph

°F

Chengdu Temperature Yesterday

Maximum temperature yesterday: 63 °F (at 1:00 pm)
Minimum temperature yesterday: 50 °F (at 3:00 am)
Average temperature yesterday: 56 °F

High & Low Weather Summary for the Past Weeks

 TemperatureHumidityPressure
High77 °F (Mar 20, 4:00 pm)100% (Mar 8, 12:00 am)30.39 "Hg (Mar 8, 12:00 am)
Low43 °F (Mar 10, 7:00 am)32% (Mar 21, 4:00 pm)29.53 "Hg (Mar 19, 4:00 pm)
Average57 °F74%30.04 "Hg
* Reported Mar 7 11:00 pm — Mar 22 11:00 pm, Chengdu. Weather by CustomWeather, © 2019

Note: Actual official high and low records may vary slightly from our data, if they occured in-between our weather recording intervals... More about our weather records

Advertising

Chengdu Weather History for the Previous 24 Hours

Scroll right to see more
 ConditionsComfort  
Time TempWeatherWind HumidityBarometerVisibility
11:00 pm
Fri, Mar 22
55 °FClear.No wind67%30.30 "Hg10 mi
10:00 pm57 °FPassing clouds.6 mph59%30.27 "HgN/A
9:00 pm57 °FPassing clouds.6 mph59%30.24 "HgN/A
8:00 pm57 °FClear.No wind59%30.18 "Hg10 mi
7:00 pm59 °FPassing clouds.6 mph51%30.15 "HgN/A
6:00 pm59 °FSunny.13 mph48%30.12 "Hg10 mi
5:00 pm59 °FPassing clouds.8 mph51%30.09 "HgN/A
4:00 pm61 °FPassing clouds.10 mph52%30.07 "HgN/A
3:00 pm63 °FPartly sunny.6 mph49%30.07 "HgN/A
2:00 pm61 °FScattered clouds.1 mph55%30.09 "HgN/A
1:00 pm63 °FPassing clouds.No wind56%30.12 "HgN/A
12:00 pm59 °FPassing clouds.No wind72%30.12 "HgN/A
11:00 am57 °FSunny.1 mph77%30.12 "Hg10 mi
10:00 am54 °FSunny.1 mph82%30.12 "Hg10 mi
9:00 am52 °FSunny.No wind94%30.09 "Hg10 mi
8:00 am50 °FPassing clouds.3 mph94%30.07 "Hg5 mi
7:00 am50 °FPassing clouds.3 mph94%30.07 "HgN/A
6:00 am50 °FPassing clouds.No wind94%30.07 "HgN/A
5:00 am50 °FSprinkles. Passing clouds.3 mph94%30.07 "HgN/A
4:00 am50 °FSprinkles. Passing clouds.3 mph94%30.07 "Hg5 mi
3:00 am50 °FSprinkles. Passing clouds.3 mph100%30.07 "Hg4 mi
2:00 am52 °FSprinkles. Passing clouds.8 mph94%30.09 "Hg4 mi
1:00 am57 °FSprinkles. Passing clouds.1 mph67%30.09 "HgN/A
12:00 am59 °FPassing clouds.No wind59%30.07 "HgN/A
Weather by CustomWeather, © 2019

See weather overview